Precipitable_Water
0.61 0.60 0.59 0.58 0.58 0.59 0.57 0.54 0.51 0.49 0.47 0.49 0.54 0.60 0.64 0.67 0.65 0.67 0.65 0.81 0.85 1.29 1.48 1.30 1.18 1.17 1.20 1.02 1.13 1.24 0.92 0.88 0.90 0.84 0.90 1.12 1.12 1.29 1.39 1.29 1.32 1.26 1.24 1.39 1.56
0.59 0.60 0.59 0.58 0.58 0.57 0.56 0.54 0.52 0.48 0.46 0.44 0.49 0.58 0.63 0.67 0.55 0.54 0.62 0.84 1.08 1.20 1.10 0.90 0.84 0.92 0.79 0.76 0.85 0.89 0.80 0.88 1.08 1.07 1.03 1.15 1.17 1.11 1.20 1.18 1.11 1.14 1.36 1.48 1.51
0.58 0.59 0.58 0.57 0.57 0.56 0.55 0.55 0.52 0.48 0.46 0.44 0.44 0.52 0.60 0.67 0.41 0.41 0.79 0.83 1.03 1.04 0.96 0.86 0.80 0.77 0.65 0.70 0.77 0.89 0.72 0.93 1.05 1.08 1.14 1.14 1.15 1.16 1.03 0.91 0.99 0.99 1.08 1.30 1.36
0.55 0.58 0.58 0.57 0.55 0.55 0.53 0.52 0.51 0.48 0.45 0.44 0.44 0.46 0.55 0.53 0.31 0.52 0.83 0.88 1.03 0.96 0.79 0.75 0.71 0.62 0.60 0.61 0.74 0.70 0.86 0.98 1.09 1.15 1.15 1.07 1.14 1.02 1.07 1.00 1.10 1.21 1.19 1.24 1.27
0.53 0.57 0.58 0.57 0.55 0.53 0.52 0.50 0.48 0.47 0.46 0.45 0.45 0.47 0.36 0.26 0.32 0.63 0.82 0.95 0.98 0.89 0.76 0.72 0.71 0.67 0.51 0.53 0.65 0.68 0.66 0.85 0.92 1.15 1.15 1.20 1.02 0.98 1.03 1.26 1.23 1.27 1.26 1.18 1.21
0.53 0.56 0.58 0.57 0.54 0.53 0.52 0.48 0.44 0.44 0.44 0.46 0.47 0.49 0.26 0.13 0.32 0.60 0.69 0.73 0.72 0.70 0.72 0.76 0.72 0.73 0.57 0.54 0.53 0.58 0.65 0.68 0.84 1.03 1.09 0.99 1.03 1.04 1.13 1.32 1.25 1.22 1.21 1.24 1.25
0.54 0.57 0.59 0.57 0.53 0.51 0.50 0.46 0.42 0.43 0.43 0.45 0.50 0.45 0.20 0.12 0.35 0.43 0.50 0.55 0.64 0.64 0.63 0.70 0.68 0.63 0.59 0.51 0.57 0.57 0.57 0.67 0.83 0.98 1.00 1.06 0.85 0.85 1.10 1.25 1.26 1.22 1.25 1.29 1.32
0.55 0.58 0.60 0.57 0.52 0.49 0.45 0.44 0.44 0.43 0.44 0.46 0.51 0.41 0.13 0.21 0.29 0.34 0.41 0.42 0.55 0.66 0.69 0.71 0.67 0.60 0.55 0.58 0.54 0.55 0.55 0.50 0.71 0.93 1.02 0.99 0.61 0.83 1.01 1.07 1.12 1.21 1.24 1.30 1.33
0.55 0.60 0.60 0.55 0.52 0.47 0.43 0.44 0.45 0.46 0.47 0.49 0.37 0.29 0.13 0.29 0.20 0.29 0.33 0.30 0.38 0.47 0.60 0.61 0.62 0.56 0.57 0.49 0.43 0.50 0.43 0.48 0.62 0.86 0.93 0.88 0.68 0.84 1.02 0.99 0.98 1.08 1.21 1.29 1.35
0.56 0.61 0.59 0.55 0.52 0.47 0.44 0.46 0.57 0.57 0.55 0.56 0.44 0.20 0.18 0.19 0.24 0.29 0.30 0.28 0.27 0.33 0.43 0.47 0.52 0.50 0.50 0.48 0.31 0.40 0.43 0.51 0.56 0.62 0.64 0.66 0.65 0.76 0.90 0.99 0.91 1.00 1.14 1.20 1.25
0.57 0.61 0.57 0.55 0.51 0.50 0.53 0.48 0.36 0.32 0.42 0.26 0.19 0.16 0.21 0.29 0.37 0.23 0.25 0.24 0.24 0.23 0.30 0.36 0.34 0.35 0.44 0.48 0.42 0.47 0.42 0.48 0.56 0.45 0.40 0.38 0.44 0.65 0.86 0.92 0.92 0.99 1.06 1.11 1.18
0.58 0.59 0.55 0.53 0.52 0.60 0.58 0.36 0.39 0.44 0.22 0.31 0.29 0.28 0.33 0.36 0.24 0.25 0.24 0.17 0.17 0.13 0.23 0.27 0.23 0.34 0.39 0.42 0.40 0.45 0.38 0.47 0.49 0.43 0.34 0.34 0.44 0.54 0.74 0.79 0.85 0.87 0.96 1.04 1.19
0.59 0.59 0.55 0.53 0.54 0.59 0.50 0.47 0.61 0.54 0.24 0.22 0.29 0.24 0.25 0.32 0.23 0.22 0.22 0.19 0.15 0.13 0.15 0.16 0.22 0.27 0.28 0.31 0.32 0.38 0.35 0.43 0.34 0.36 0.35 0.37 0.35 0.53 0.66 0.76 0.85 0.89 0.97 1.07 1.15
0.60 0.58 0.54 0.52 0.48 0.53 0.46 0.59 0.62 0.54 0.17 0.22 0.21 0.24 0.29 0.32 0.20 0.31 0.25 0.19 0.15 0.12 0.15 0.14 0.17 0.17 0.18 0.19 0.26 0.27 0.40 0.33 0.31 0.28 0.30 0.31 0.21 0.34 0.53 0.57 0.66 0.76 0.86 0.96 1.07
0.59 0.56 0.54 0.54 0.47 0.46 0.54 0.66 0.60 0.43 0.11 0.30 0.26 0.38 0.32 0.21 0.23 0.24 0.30 0.20 0.14 0.13 0.14 0.11 0.14 0.14 0.14 0.17 0.23 0.27 0.31 0.28 0.26 0.23 0.24 0.27 0.27 0.29 0.49 0.45 0.47 0.59 0.72 0.93 1.04
0.59 0.55 0.55 0.52 0.51 0.58 0.65 0.56 0.45 0.14 0.12 0.27 0.35 0.33 0.31 0.25 0.25 0.25 0.24 0.26 0.22 0.17 0.18 0.14 0.18 0.17 0.16 0.21 0.22 0.24 0.25 0.24 0.22 0.23 0.19 0.24 0.27 0.27 0.37 0.41 0.48 0.54 0.68 0.90 1.03
0.57 0.57 0.55 0.55 0.39 0.65 0.63 0.38 0.14 0.13 0.31 0.28 0.29 0.33 0.30 0.25 0.22 0.22 0.19 0.18 0.15 0.12 0.12 0.14 0.13 0.16 0.17 0.18 0.23 0.22 0.20 0.17 0.15 0.16 0.16 0.26 0.24 0.25 0.38 0.44 0.47 0.56 0.69 0.88 1.00
0.61 0.61 0.60 0.55 0.58 0.60 0.45 0.23 0.14 0.27 0.28 0.36 0.30 0.31 0.26 0.26 0.24 0.24 0.20 0.19 0.22 0.20 0.16 0.13 0.09 0.13 0.15 0.15 0.19 0.21 0.19 0.14 0.11 0.11 0.12 0.18 0.15 0.19 0.33 0.48 0.62 0.68 0.75 0.85 0.95
0.68 0.59 0.55 0.57 0.65 0.58 0.34 0.13 0.22 0.31 0.38 0.33 0.28 0.27 0.26 0.26 0.26 0.24 0.24 0.24 0.25 0.24 0.18 0.15 0.13 0.19 0.17 0.14 0.15 0.15 0.16 0.19 0.16 0.16 0.13 0.14 0.16 0.21 0.37 0.45 0.50 0.59 0.72 0.85 0.93
0.64 0.62 0.55 0.61 0.65 0.47 0.26 0.17 0.31 0.40 0.43 0.41 0.29 0.29 0.26 0.27 0.26 0.25 0.27 0.33 0.35 0.35 0.29 0.22 0.15 0.20 0.21 0.21 0.20 0.18 0.20 0.16 0.17 0.12 0.11 0.12 0.13 0.13 0.29 0.29 0.34 0.35 0.45 0.78 0.92
0.74 0.58 0.73 0.69 0.60 0.36 0.17 0.18 0.34 0.49 0.50 0.43 0.40 0.33 0.31 0.32 0.31 0.27 0.31 0.35 0.43 0.41 0.37 0.27 0.21 0.19 0.21 0.20 0.19 0.19 0.18 0.19 0.19 0.18 0.13 0.12 0.13 0.17 0.22 0.28 0.28 0.28 0.37 0.64 0.86
0.66 0.49 0.82 0.75 0.41 0.39 0.30 0.35 0.48 0.51 0.54 0.48 0.47 0.42 0.38 0.37 0.34 0.31 0.31 0.37 0.52 0.54 0.40 0.34 0.26 0.19 0.20 0.25 0.25 0.24 0.21 0.20 0.17 0.15 0.17 0.16 0.14 0.20 0.20 0.24 0.28 0.30 0.37 0.64 0.80
0.61 0.63 0.84 0.72 0.38 0.42 0.47 0.43 0.44 0.46 0.50 0.47 0.42 0.45 0.48 0.41 0.34 0.37 0.37 0.45 0.55 0.53 0.50 0.47 0.31 0.22 0.20 0.23 0.25 0.22 0.25 0.25 0.23 0.22 0.18 0.16 0.16 0.23 0.26 0.27 0.30 0.32 0.39 0.57 0.76
0.62 0.46 0.61 0.64 0.58 0.49 0.41 0.39 0.39 0.48 0.50 0.51 0.48 0.48 0.43 0.41 0.47 0.41 0.44 0.51 0.55 0.60 0.64 0.57 0.43 0.33 0.25 0.24 0.29 0.27 0.31 0.31 0.28 0.22 0.21 0.21 0.21 0.22 0.27 0.29 0.31 0.31 0.37 0.58 0.72
0.56 0.45 0.52 0.41 0.47 0.48 0.46 0.42 0.41 0.40 0.47 0.50 0.45 0.43 0.43 0.38 0.39 0.40 0.47 0.52 0.56 0.64 0.61 0.56 0.43 0.48 0.48 0.46 0.44 0.35 0.33 0.34 0.31 0.30 0.24 0.27 0.24 0.25 0.30 0.34 0.36 0.37 0.41 0.63 0.65
0.41 0.45 0.51 0.43 0.43 0.40 0.42 0.42 0.41 0.44 0.45 0.43 0.42 0.45 0.44 0.41 0.43 0.43 0.45 0.50 0.49 0.59 0.55 0.58 0.42 0.49 0.43 0.51 0.51 0.42 0.44 0.43 0.40 0.35 0.32 0.33 0.28 0.33 0.41 0.42 0.39 0.40 0.44 0.57 0.71
0.52 0.53 0.40 0.35 0.36 0.33 0.29 0.29 0.34 0.43 0.46 0.49 0.46 0.44 0.43 0.46 0.51 0.51 0.50 0.50 0.54 0.56 0.55 0.54 0.48 0.44 0.37 0.45 0.44 0.34 0.42 0.45 0.45 0.45 0.40 0.34 0.41 0.48 0.40 0.40 0.42 0.39 0.44 0.49 0.65
Wind_Speed
4 4 3 3 3 2 2 2 1 1 2 2 2 2 2 2 3 5 6 6 7 9 8 7 5 5 4 4 4 4 5 3 2 5 6 5 7 6 6 5 4 2 3 4 10
5 5 5 4 4 3 3 3 2 2 2 3 3 3 3 3 4 6 6 8 8 9 7 6 4 3 2 2 3 2 3 3 3 2 4 5 5 5 7 4 5 5 6 8 10
5 6 6 6 5 5 5 4 4 3 4 4 4 4 4 3 5 6 6 10 10 9 7 5 3 1 1 2 2 2 2 2 2 6 2 3 4 5 5 5 3 4 6 10 11
6 6 6 7 7 7 7 6 6 5 5 5 5 5 5 5 6 6 6 12 12 9 6 4 3 1 1 2 1 2 3 4 4 4 2 2 3 4 3 6 4 6 9 10 10
6 6 7 7 7 7 8 8 8 7 7 6 6 6 6 7 7 6 6 11 11 10 8 6 4 3 3 4 4 2 6 5 6 3 2 1 2 4 3 6 6 7 8 8 8
6 6 7 7 8 8 8 8 9 9 8 8 7 7 8 8 8 7 8 10 11 10 9 8 6 5 5 4 3 7 6 7 3 3 2 1 1 2 3 4 5 7 7 7 6
7 7 7 7 8 8 9 9 9 9 9 9 8 8 9 11 10 9 9 10 11 11 10 10 8 6 6 6 5 7 6 5 3 4 3 2 5 4 2 1 3 5 5 6 6
7 7 8 8 8 9 9 9 10 9 9 9 9 9 10 10 12 13 11 11 12 12 11 11 9 8 7 6 6 4 3 5 5 1 3 2 6 5 4 5 5 5 5 6 7
7 7 8 8 9 9 10 10 9 7 8 8 8 9 11 10 13 13 14 12 11 12 13 11 9 9 8 7 6 4 3 3 6 3 2 3 8 6 4 5 7 7 7 6 7
8 8 8 9 9 10 10 8 7 7 7 8 9 9 10 9 11 14 14 14 12 11 11 11 10 10 10 8 9 7 6 6 3 6 6 7 12 11 7 8 8 9 8 7 7
9 9 9 9 10 9 8 7 8 8 9 10 9 9 9 10 10 13 14 14 13 11 12 12 11 13 15 13 10 9 8 8 9 9 9 10 12 13 6 8 7 7 10 10 8
9 9 9 10 10 8 7 7 7 9 10 11 13 14 13 11 10 11 14 13 13 14 13 12 13 14 11 12 12 11 10 11 11 9 10 11 11 11 6 8 11 10 10 12 10
10 10 10 11 10 8 7 7 8 9 9 10 10 11 12 11 11 12 12 13 13 14 14 13 12 12 12 12 11 12 11 11 12 13 10 8 10 7 6 8 8 9 10 12 13
12 11 11 11 9 9 9 9 10 9 6 9 8 9 10 11 11 12 13 12 11 15 14 14 15 15 13 14 12 13 12 12 11 10 10 9 9 10 9 10 10 11 11 13 13
12 12 12 10 11 10 10 10 9 8 6 8 7 8 9 11 10 10 13 11 12 12 12 14 12 13 14 14 13 14 11 12 12 11 10 9 7 10 8 10 11 10 10 13 14
13 13 12 10 11 11 10 10 8 7 7 7 7 8 8 11 9 9 10 11 12 12 13 16 15 14 14 13 14 13 12 10 9 9 9 11 7 10 8 8 8 9 8 8 12
13 13 12 11 10 11 10 8 7 7 9 10 10 9 9 9 12 12 11 12 12 10 13 13 17 18 16 15 14 11 10 11 10 9 12 10 9 13 12 10 10 9 8 6 9
12 12 11 11 10 9 9 7 7 9 10 10 9 9 9 9 10 11 10 12 13 11 10 11 11 14 16 19 15 15 13 11 12 10 11 11 12 11 11 12 9 7 7 5 7
10 9 9 9 11 9 8 8 10 10 10 10 9 8 9 9 10 10 10 12 14 14 14 10 11 10 12 14 15 15 14 13 10 11 9 11 13 13 8 6 6 7 8 7 7
8 7 7 7 9 8 8 11 11 10 10 8 7 9 9 11 10 9 10 10 11 13 16 16 13 12 13 12 12 14 14 11 12 11 12 11 12 11 11 9 7 9 10 9 9
8 7 7 7 8 8 9 12 12 12 11 10 10 9 9 10 10 10 11 12 11 11 12 13 14 16 13 14 14 11 12 11 11 11 11 11 11 10 13 13 14 13 11 9 11
8 7 7 8 7 8 9 11 12 11 10 11 10 10 10 11 10 11 12 13 11 12 11 13 13 15 19 15 15 14 15 14 12 13 12 12 13 11 14 15 14 15 14 12 13
6 7 7 7 7 8 10 11 12 11 10 9 11 12 11 11 11 12 13 14 13 11 11 13 13 12 13 12 13 14 14 12 11 11 12 10 13 10 12 15 15 16 14 14 13
6 6 7 7 8 8 8 10 10 11 12 11 11 10 11 12 12 14 14 14 15 14 12 11 12 14 14 15 13 13 14 13 13 12 13 15 16 14 13 14 15 17 16 15 17
6 7 8 8 8 9 9 10 10 10 10 10 10 10 12 11 12 13 15 16 15 14 14 14 15 15 15 15 15 15 17 17 17 16 15 17 17 17 16 15 15 16 16 15 18
5 7 8 9 10 10 10 11 11 12 12 11 10 13 13 12 13 15 14 14 15 15 15 16 17 16 17 17 16 19 20 20 19 18 20 20 21 19 18 17 16 17 16 17 16
5 6 8 9 10 10 12 11 12 12 14 14 13 14 14 14 16 18 18 19 18 17 16 16 15 16 19 18 20 21 20 20 19 19 20 20 22 20 21 20 18 19 19 20 20
Wind_Direction
262 263 266 269 275 285 303 325 289 246 239 238 229 224 223 222 212 178 175 168 162 152 144 140 118 100 84 47 51 59 55 50 53 34 22 49 44 38 26 56 39 41 33 126 143
262 260 261 262 265 269 273 281 289 261 253 251 244 239 238 235 204 200 192 176 164 162 152 152 146 118 33 18 38 52 36 20 17 356 358 28 30 20 27 43 27 39 67 129 145
264 263 261 261 262 264 265 267 272 271 260 255 252 246 242 226 202 197 191 189 181 174 172 172 158 169 345 21 13 31 353 335 12 342 14 21 7 18 48 26 45 86 104 135 147
268 265 263 263 263 263 262 263 265 267 266 258 254 249 240 208 189 201 216 194 188 188 186 194 203 228 282 329 335 355 313 312 311 317 11 56 33 32 35 27 69 108 111 128 146
275 270 267 266 267 266 264 263 262 263 263 259 252 246 223 215 219 211 201 188 195 201 208 210 221 248 274 299 313 263 318 294 287 280 335 44 48 28 27 37 99 113 126 130 140
280 276 272 270 270 269 268 266 263 261 260 256 251 244 228 222 220 211 200 196 205 211 219 222 235 246 272 286 293 307 313 292 261 225 277 305 301 353 22 66 103 133 146 148 142
282 279 278 276 273 270 270 270 268 262 256 249 245 240 233 227 216 216 217 214 217 218 224 232 242 247 272 298 296 311 335 358 329 278 310 310 313 282 245 155 143 155 165 171 177
285 282 280 279 278 275 272 272 269 261 252 245 241 240 238 232 230 229 222 225 224 227 233 239 242 249 251 273 301 313 330 357 349 301 294 277 286 318 224 208 201 201 192 198 204
288 286 284 283 282 280 276 272 264 251 242 241 245 242 245 241 230 228 225 225 225 232 236 239 239 242 250 253 286 302 270 315 336 312 277 274 288 341 238 219 226 214 214 214 218
284 287 287 286 285 282 279 263 249 246 246 248 250 250 243 235 236 232 228 226 233 234 235 237 242 244 247 250 258 272 279 283 273 333 300 285 277 283 252 241 232 226 224 215 227
282 285 287 288 287 283 271 248 260 258 253 244 244 244 244 247 241 229 227 227 233 241 236 243 241 242 246 242 247 254 257 268 280 296 301 288 282 283 252 239 243 235 229 230 233
280 284 286 287 286 274 257 252 256 261 269 258 253 250 247 247 243 234 227 229 233 236 240 249 244 242 246 240 242 247 257 267 276 286 305 301 294 283 249 252 241 239 238 235 238
278 282 286 288 277 257 257 255 272 265 262 265 252 244 236 229 237 239 227 231 237 233 236 234 243 237 244 242 244 244 242 258 270 296 298 304 308 302 272 266 269 256 249 242 236
274 279 283 286 260 261 256 269 275 258 261 266 259 249 228 231 247 237 233 230 240 229 231 243 246 241 242 243 235 245 235 256 268 288 281 305 284 299 287 284 265 259 255 242 236
272 275 277 273 263 253 262 273 262 257 254 262 251 237 231 229 243 251 236 238 229 232 232 244 241 241 238 237 228 234 249 262 268 269 284 281 285 277 298 294 281 272 262 242 235
271 272 273 263 258 253 266 267 250 255 251 255 240 243 238 243 246 253 239 237 238 239 251 245 246 241 238 234 234 246 252 267 268 266 273 269 266 277 275 279 288 287 269 255 229
270 268 263 258 254 258 260 252 253 241 253 265 258 254 249 248 245 253 249 241 236 247 253 260 249 247 241 241 242 236 250 261 267 273 259 272 273 257 269 283 280 281 289 260 230
268 262 255 251 250 258 245 244 245 247 254 268 264 250 249 257 248 253 239 244 243 244 252 247 267 238 239 228 228 231 229 236 250 251 265 280 267 265 266 283 279 270 288 267 220
258 253 255 252 240 248 237 241 240 245 262 274 260 248 261 263 254 249 247 252 246 237 234 239 252 253 245 229 222 236 238 243 244 266 267 265 276 279 260 277 285 295 284 270 230
238 246 258 249 230 241 236 239 245 249 267 265 255 249 255 267 258 263 253 251 254 246 248 241 255 249 248 233 236 235 230 242 254 244 251 264 271 258 260 275 272 283 284 261 224
237 247 261 239 246 246 236 241 251 258 257 252 254 257 255 261 259 257 253 255 263 264 249 238 241 248 243 236 234 238 236 246 241 245 242 252 264 250 249 258 268 281 283 238 224
235 247 252 248 253 247 243 245 254 261 267 254 253 250 251 251 259 258 253 251 272 262 255 246 242 244 240 242 239 241 240 236 238 249 255 251 257 267 269 272 271 275 275 243 230
237 242 243 258 249 257 259 255 250 257 265 259 254 254 257 258 264 257 260 269 270 269 258 247 253 256 263 251 245 240 237 238 242 252 247 245 258 272 283 274 270 268 271 248 234
239 247 257 256 253 249 258 256 262 259 255 266 262 261 260 264 266 264 268 267 273 262 258 253 252 243 241 243 239 237 239 239 244 252 247 255 266 276 286 285 280 270 266 255 237
260 255 252 256 261 259 255 257 258 265 264 271 263 270 268 265 264 263 265 271 270 268 255 255 250 247 249 248 250 247 244 245 247 250 251 259 256 266 273 276 279 271 262 256 244
264 260 265 261 266 262 257 252 256 260 258 264 263 272 266 260 263 266 269 262 259 263 262 262 260 254 256 253 251 253 251 253 254 253 259 262 264 258 270 272 271 276 263 253 247
300 280 266 268 265 262 258 255 257 266 260 255 265 269 265 262 273 269 264 264 260 259 259 259 250 252 258 258 266 262 251 247 254 258 255 256 259 264 266 271 273 276 270 255 247